Find STARLINK-37453

NORAD ID: 68862 Int'l Des: 2026-094Z Owner: SPXS Country: US Constellation: starlink operational
LEOCIRCULARRETROGRADE

現在のビュー

3D地球を読み込み中...

About STARLINK-37453

STARLINK-37453 (NORAD 68862) is a starlink constellation satellite (v2 mini) launched Apr 26, 2026 by SPXS of US. It operates in LEO, CIRCULAR, RETROGRADE orbit with a mass of 575.00 kg.

STARLINK-37453について

説明を読み込み中...

次回通過

Passes for default location (London). Set your location on the main map for personalized predictions.

高度履歴

Loading altitude history...

軌道要素

1 68862U 26094Z 26167.00113743 .00010137 00000-0 31591-3 0 9996
2 68862 97.2837 181.5688 0001273 94.2011 265.9377 15.33444515 7871
Epoch: Jun 16, 2026 • Age: 11 hours

現在のステータス

高度 493.2 km
速度 7.62 km/s
衛星直下点 -72.77°S, 84.84°W
打ち上げ日 Apr 26, 2026
運用期間 0.1 years
タイプ internet

技術仕様

分類 Payload
質量 575.00 kg
乾燥質量 530.00 kg
総質量 575.00 kg
長さ 0.30 m
直径 4.10 m
スパン 29.00 m
形状 Box + pan
製造者 SPXS
バスタイプ Starlink V2MO
フェーズステータス In Orbit
所有者/国 SPXS/US

Most Searched